Regional Weather Roundup
Issued by NWS Newport/Morehead, NC

Current Version | Previous Version | Graphics & Text | Print | Product List | Glossary On
Versions: 1 2 3 4 5 6 7 8 9 10 11 12 13 14 15 16 17 18 19 20 21 22 23 24 25 26 27 28 29 30 31 32 33 34 35 36 37 38 39 40 41 42 43 44 45 46 47 48 49 50
075 ASUS42 KMHX 061713 RWRMHX WEATHER ROUNDUP FOR EASTERN NORTH CAROLINA NATIONAL WEATHER SERVICE NEWPORT/MOREHEAD CITY NC 100 PM EDT FRI MAY 06 2016 NOTE: "FAIR" INDICATES FEW OR NO CLOUDS BELOW 12,000 FEET WITH NO SIGNIFICANT WEATHER AND/OR OBSTRUCTIONS TO VISIBILITY NCZ015>017-031-032-045>047-102-103-061800- NORTH COAST CITY SKY/WX TMP DP RH WIND PRES REMARKS EDENTON CLOUDY 57 57 100 NW3 29.71S ELIZABETH CITY LGT RAIN 57 50 77 W7 29.69F KITTY HAWK CLOUDY 60 54 82 E9 29.68S MANTEO DRIZZLE 58 54 85 S5 29.69S $$ NCZ045>047-081-094-103-104-061800- CENTRAL COAST CITY SKY/WX TMP DP RH WIND PRES REMARKS FRISCO PTSUNNY 59 50 72 SW9 29.71F SWANQUARTER NOT AVBL $$ NCZ095-097-098-100-101-061800- SOUTHERN COAST CITY SKY/WX TMP DP RH WIND PRES REMARKS BEAUFORT PTSUNNY 58 49 72 W12 29.73S CEDAR ISLAND NOT AVBL JACKSONVILLE CLOUDY 61 48 62 W9 29.73F PINEY ISLAND CLOUDY N/A N/A N/A W13 29.71F WILMINGTON CLOUDY 60 47 61 W15 29.76S $$ NCZ011>013-027>030-043-044-078>080-089-090>093-098-061800- COASTAL PLAIN CITY SKY/WX TMP DP RH WIND PRES REMARKS AHOSKIE CLOUDY 56 50 82 CALM 29.71F CLINTON PTSUNNY 60 53 78 W7 29.76F ELIZABETHTOWN CLOUDY 63 48 58 NW12 29.77S GOLDSBORO CLOUDY 57 57 100 W7 29.72R GREENVILLE PTSUNNY 61 52 72 W6 29.75S HAVELOCK DRIZZLE 59 50 72 W12 29.74S KENANSVILLE CLOUDY 58 50 73 CALM 29.76S KINSTON MOSUNNY 63 50 63 W8 29.73F NEW BERN PTSUNNY 60 53 77 W7 29.73F RICHLANDS CLOUDY 60 51 72 W8G17 29.75S ROCKY MOUNT CLOUDY 60 52 74 NW10 29.72S WASHINGTON MOSUNNY 61 52 72 NW7 29.71S WHITEVILLE NOT AVBL $$ AMZ130-135-150-152-154-156-158-170-250-252-270-ANZ085-086-088-633-658-670-061800- MARINE OBSERVATIONS STATION/POSITION TIME TEMP WIND PRES WAVE SWELL AIR SEA DIR/SP/G HT/PER HT/PER (UTC) (F) (DEG/KT/KT) (MB) (FT/S) (FT/S) CHESAPEAKE LIGHT 1600 51 190/ 3/ 3 1006.3 64 E VA BEACH 1650 52 53 210/ 4/ 6 1005.7 6/ 8 5/ 8 DUCK 1600 57 59 90/ 5/ 7 1005.1 2 E DUCK 1611 60 N/A 4/ 7 2/11 OREGON INLET 1600 59 59 150/ 8/ 11 1005.3 13E OREGON INLT 1700 57 N/A 6/ 8 5/ 8 HATTERAS CG NOT AVBL DIAMOND BUOY 1650 60 75 250/ 16/ 21 1006.2 6/ 9 5/ 9 CAPE LOOKOUT 1600 58 250/ 12/ 15 1006.5 BEAUFORT LAB 1600 59 65 240/ 3/ 8 1005.8 30 SE NEW RVR IN 1625 72 N/A 4/ 7 27 SE WRIGHTSVLE 1608 60 72 290/ 14/ 19 1007.1 5 SE WRIGHTSVLE 1608 59 69 310/ 12/ 16 1008.4 225 S CAPE HAT 1650 71 73 200/ 16/ 21 1008.2 8/ 9 5/ 9 41 SE CHARLESTON 1650 62 72 300/ 14/ 17 1009.8 3/ 4 2/ 9 $$

USA.gov is the U.S. government's official web portal to all federal, state and local government web resources and services.